EHI
0 0 0 0 0 0 0 0 0 0 0 0 0 0 0 0 0 0 0 0 0 0 0 0 0 0 0 0 0 0 0 0 0 0 0 0 0 0 0 0 0 0 0 0
0 0 0 0 0 0 0 0 0 0 0 0 0 0 0 0 0 0 0 0 0 0 0 0 0 0 0 0 0 0 0 0 0 0 0 0 0 0 0 0 0 0 0 0
0 0 0 0 0 0 0 0 0 0 0 0 0 0 0 0 0 0 0 0 0 0 0 0 0 0 0 0 0 0 0 0 0 0 0 0 0 0 0 0 0 0 0 0
0 0 0 0 0 0 0 0 0 0 0 0 0 0 0 0 0 0 0 0 0 0 0 0 0 0 0 0 0 0 0 0 0 0 0 0 0 0 0 0 0 0 0 0
0 0 0 0 0 0 0 0 0 0 0 0 0 0 0 0 0 0 0 0 0 0 0 0 0 0 0 0 0 0 0 0 0 0 0 0 0 0 0 0 0 0 0 0
0 0 0 0 0 0 0 0 0 0 0 0 0 0 0 0 0 0 0 0 0 0 0 0 0 0 0 0 0 0 0 0 0 0 0 0 0 0 0 0 0 0 0 0
0 0 0 0 0 0 0 0 0 0 0 0 0 0 0 0 0 0 0 0 0 0 0 0 0 0 0 0 0 0 0 0 0 0 0 0 0 0 0 0 0 0 0 0
0 0 0 0 0 0 0 0 0 0 0 0 0 0 0 0 0 0 0 0 0 0 0 0 0 0 0 0 0 0 0 0 0 0 0 0 0 0 0 0 0 0 0 0
0 0 0 0 0 0 0 0 0 0 0 0 0 0 0 0 0 0 0 0 0 0 0 0 0 0 0 0 0 0 0 0 0 0 0 0 0 0 0 0 0 0 0 0
0 0 0 0 0 0 0 0 0 0 0 0 0 0 0 0 0 0 0 0 0 0 0 0 0 0 0 0 0 0 0 0 0 0 0 0 0 0 0 0 0 0 0 0
0 0 0 0 0 0 0 0 0 0 0 0 0 0 0 0 0 0 0 0 0 0 0 0 0 0 0 0 0 0 0 0 0 0 0 0 0 0 0 0 0 0 0 0
0 0 0 0 0 0 0 0 0 0 0 0 0 0 0 0 0 0 0 0 0 0 0 0 0 0 0 0 0 0 0 0 0 0 0 0 0 0 0 0 0 0 0 0
0 0 0 0 0 0 0 0 0 0 0 0 0 0 0 0 0 0 0 0 0 0 0 0 0 0 0 0 0 0 0 0 0 0 0 0 0 0 0 0 0 0 0 0
0 0 0 0 0 0 0 0 0 0 0 0 0 0 0 0 0 0 0 0 0 0 0 0 0 0 0 0 0 0 0 0 0 0 0 0 0 0 0 0 0 0 0 0
0 0 0 0 0 0 0 0 0 0 0 0 0 0 0 0 0 0 0 0 0 0 0 0 0 0 0 0 0 0 0 0 0 0 0 0 0 0 0 0 0 0 0 0
0 0 0 0 0 0 0 0 0 0 0 0 0 0 0 0 0 0 0 0 0 0 0 0 0 0 0 0 0 0 0 0 0 0 0 0 0 0 0 0 0 0 0 0
0 0 0 0 0 0 0 0 0 0 0 0 0 0 0 0 0 0 0 0 0 0 0 0 0 0 0 0 0 0 0 0 0 0 0 0 0 0 0 0 0 0 0 0
0 0 0 0 0 0 0 0 0 0 0 0 0 0 0 0 0 0 0 0 0 0 0 0 0 0 0 0 0 0 0 0 0 0 0 0 0 0 0 0 0 0 0 0
0 0 0 0 0 0 0 0 0 0 0 0 0 0 0 0 0 0 0 0 0 0 0 0 0 0 0 0 0 0 0 0 0 0 0 0 0 0 0 0 0 0 0 0
0 0 0 0 0 0 0 0 0 0 0 0 0 0 0 0 0 0 0 0 0 0 0 0 0 0 0 0 0 0 0 0 0 0 0 0 0 0 0 0 0 0 0 0
0 0 0 0 0 0 0 0 0 0 0 0 0 0 0 0 0 0 0 0 0 0 0 0 0 0 0 0 0 0 0 0 0 0 0 0 0 0 0 0 0 0 0 0
0 0 0 0 0 0 0 0 0 0 0 0 0 0 0 0 0 0 0 0 0 0 0 0 0 0 0 0 0 0 0 0 0 0 0 0 0 0 0 0 0 0 0 0
0 0 0 0 0 0 0 0 0 0 0 0 0 0 0 0 0 0 0 0 0 0 0 0 0 0 0 0 0 0 0 0 0 0 0 0 0 0 0 0 0 0 0 0
0 0 0 0 0 0 0 0 0 0 0 0 0 0 0 0 0 0 0 0 0 0 0 0 0 0 0 0 0 0 0 0 0 0 0 0 0 0 0 0 0 0 0 0
0 0 0 0 0 0 0 0 0 0 0 0 0 0 0 0 0 0 0 0 0 0 0 0 0 0 0 0 0 0 0 0 0 0 0 0 0 0 0 0 0 0 0 0
0 0 0 0 0 0 0 0 0 0 0 0 0 0 0 0 0 0 0 0 0 0 0 0 0 0 0 0 0 0 0 0 0 0 0 0 0 0 0 0 0 0 0 0
Wind_Speed
6 8 5 2 2 4 5 4 2 1 1 1 1 5 6 3 2 3 4 3 3 3 2 1 2 3 4 5 5 6 7 7 6 4 3 3 3 3 3 3 5 6 5 5
7 6 2 1 5 6 5 5 2 2 2 1 2 6 5 3 3 4 5 5 4 3 2 2 2 2 3 4 5 5 6 6 6 4 3 2 3 2 2 3 4 6 6 6
7 1 2 5 6 6 5 3 2 1 3 4 3 6 3 1 1 1 3 3 3 4 3 3 2 2 3 3 4 5 5 6 5 5 3 3 2 2 3 4 4 6 6 6
5 3 4 6 5 4 2 1 2 2 3 3 3 4 6 3 3 3 3 3 4 3 3 3 2 3 3 3 3 4 4 4 5 4 3 3 2 2 3 3 4 5 6 6
4 3 4 4 2 2 1 1 2 2 3 2 2 1 9 2 4 5 4 4 4 4 4 4 3 3 3 2 3 3 3 4 4 4 3 3 3 2 2 3 4 5 5 6
3 2 2 1 2 2 2 4 4 4 3 2 2 2 8 4 5 4 3 4 4 4 3 3 3 2 2 2 2 2 3 3 3 3 3 3 3 3 4 4 4 4 4 4
6 4 3 2 3 4 4 5 4 5 4 4 1 3 10 6 5 4 5 4 4 4 3 3 3 3 3 3 2 2 2 3 3 3 3 3 3 3 3 3 4 4 4 4
3 3 3 2 1 1 1 4 5 3 3 5 2 6 9 4 3 3 4 3 3 3 4 4 4 4 3 3 3 2 2 2 2 2 2 2 3 2 2 3 3 3 3 4
2 2 2 1 1 3 2 2 3 4 1 3 6 7 9 2 2 2 2 2 3 4 4 5 4 4 4 4 3 2 2 1 1 1 1 2 3 3 3 3 3 3 3 4
3 0 2 2 2 2 2 4 3 3 0 4 6 6 6 4 4 3 3 4 5 4 4 5 4 4 4 4 3 2 2 2 1 0 1 1 2 2 2 3 4 4 4 4
2 2 2 1 2 3 2 2 3 2 2 2 5 9 6 5 4 4 5 5 5 5 6 5 5 4 3 3 2 2 2 1 1 0 0 1 1 2 2 2 3 3 4 4
1 3 1 4 2 2 3 4 5 3 3 3 3 11 4 4 4 4 5 4 4 5 5 5 4 3 3 3 3 3 2 2 2 1 1 1 1 1 2 2 3 3 3 4
2 3 2 4 3 0 2 3 4 3 3 4 4 11 3 2 3 3 4 5 5 5 5 4 4 4 4 4 3 3 3 3 2 2 2 1 1 1 1 1 2 2 3 3
3 2 4 6 4 3 4 4 5 5 4 5 10 11 9 6 6 6 6 6 6 5 5 4 4 5 5 4 4 4 3 3 3 3 2 2 1 1 1 0 1 1 1 2
3 2 4 7 6 5 7 8 8 10 9 9 9 9 13 8 7 7 7 6 6 6 6 5 5 5 5 4 4 4 4 4 4 4 3 3 2 1 1 0 0 1 1 2
2 1 2 5 4 5 9 12 12 12 11 12 11 15 12 6 4 6 7 6 7 7 7 6 5 5 5 6 6 5 5 5 4 5 4 3 2 2 2 1 1 0 1 1
0 1 2 5 5 6 9 10 11 8 8 9 13 12 6 5 7 7 7 7 8 8 7 6 6 6 6 6 6 6 6 4 5 5 4 4 3 3 2 2 1 1 1 0
4 3 1 4 6 6 7 1 6 7 8 10 9 8 7 8 7 7 7 7 8 7 6 6 5 5 5 4 4 4 4 5 5 5 4 4 4 3 3 2 2 2 1 1
5 4 2 1 4 11 9 3 4 5 7 8 10 10 8 4 4 6 5 6 7 7 6 6 5 5 4 4 4 4 4 4 5 5 5 5 5 4 3 4 3 2 2 1
2 2 2 2 3 8 5 1 2 2 6 4 6 6 4 1 2 6 3 3 5 5 5 4 3 3 4 4 4 5 5 5 7 7 6 5 5 5 5 4 3 2 2 2
3 3 5 5 6 12 8 2 2 2 5 2 3 4 4 6 7 5 4 4 5 5 5 4 3 4 4 3 4 6 6 8 7 5 4 4 4 5 5 4 3 2 2 1
8 7 7 6 7 12 4 5 6 7 3 2 3 4 5 7 7 6 6 6 5 5 5 3 3 5 3 3 5 6 7 6 4 4 4 4 4 4 4 4 3 2 3 2
8 10 7 11 12 6 4 7 5 2 4 4 4 5 5 7 7 7 6 6 6 6 5 4 4 5 4 4 6 7 7 4 5 5 5 4 4 4 3 4 4 2 3 2
6 4 4 7 12 9 8 7 6 5 6 7 6 7 6 8 9 8 7 6 6 6 5 4 4 5 5 5 6 7 5 5 5 5 5 4 4 3 3 3 3 3 3 3
7 4 5 9 10 8 7 6 7 7 7 7 7 7 8 8 9 8 7 7 6 6 5 4 5 7 7 5 6 6 5 5 5 5 4 4 4 4 4 4 4 5 5 5
8 9 8 10 8 6 8 5 5 6 7 7 8 8 7 7 9 8 7 7 6 6 5 5 6 7 6 5 6 5 5 6 6 5 5 4 4 4 3 3 3 6 6 8
Wind_Direction
27 59 57 38 66 122 123 114 99 349 15 61 248 273 280 277 231 230 228 222 228 243 271 319 351 360 1 359 357 352 351 348 351 345 342 338 340 338 345 350 352 349 346 341
51 47 352 58 79 81 87 94 68 9 23 55 312 283 272 246 220 216 214 219 222 237 285 305 330 359 358 348 348 350 349 345 346 338 320 304 311 318 332 346 357 358 356 349
87 10 6 73 67 72 53 97 117 44 5 39 356 310 289 277 230 206 209 211 217 217 236 267 297 323 335 339 341 341 339 340 342 341 338 339 348 340 351 356 356 359 360 357
64 28 61 65 50 73 61 16 104 76 56 348 38 305 288 282 286 249 231 225 229 231 236 250 270 295 304 309 324 326 330 338 343 350 360 5 12 358 345 341 344 348 358 358
54 38 58 60 29 87 128 64 83 83 91 6 18 224 284 305 272 261 242 232 235 232 234 245 252 263 281 299 317 320 327 338 347 359 7 16 14 350 333 347 358 360 359 2
52 24 56 79 39 73 104 69 60 50 60 328 255 187 279 250 234 261 251 233 233 234 242 251 255 264 280 302 317 319 327 337 350 5 16 23 14 2 5 6 3 -0 357 0
16 12 14 43 62 32 61 75 36 5 5 264 235 219 254 255 238 233 248 248 238 231 234 247 254 264 276 290 299 311 335 341 351 10 20 20 12 10 12 3 1 2 2 0
59 339 337 11 90 109 68 115 141 192 248 288 289 243 256 259 265 253 248 245 238 234 238 245 245 245 254 264 271 285 307 320 348 9 12 20 18 21 16 13 12 11 4 358
111 282 320 356 47 120 111 102 144 129 158 286 279 281 295 255 261 255 259 258 252 248 251 254 254 245 244 248 249 247 257 285 323 354 26 39 32 35 30 22 24 19 11 10
130 145 308 327 65 35 118 140 99 109 145 292 295 275 261 274 261 258 249 253 258 255 255 260 257 248 241 238 245 240 229 238 266 331 36 63 48 41 38 40 32 28 19 17
101 125 315 358 196 188 134 126 120 124 164 194 291 277 229 226 235 243 250 249 253 252 252 255 256 251 244 238 231 232 229 225 230 232 72 72 57 48 52 49 33 27 25 21
101 115 262 262 257 198 182 182 158 166 223 198 239 271 266 236 247 248 259 263 261 256 254 253 252 248 241 236 229 223 221 214 210 187 151 123 81 61 54 40 28 27 25 22
137 106 20 350 343 260 226 202 181 159 155 187 218 264 294 307 284 270 265 272 271 268 266 262 248 239 237 233 227 222 219 217 207 174 159 145 116 87 56 35 23 27 23 22
113 147 185 211 231 202 236 227 191 167 196 223 231 257 279 283 286 286 277 269 267 264 259 252 247 243 240 232 223 217 221 211 197 177 170 178 188 180 169 78 40 33 29 29
99 221 247 256 261 246 241 237 212 211 212 221 244 249 265 261 255 260 262 263 264 266 262 250 245 243 237 232 226 217 215 204 191 182 186 203 200 180 161 135 62 32 32 26
83 240 304 288 272 262 260 245 227 229 229 240 261 273 267 265 248 255 257 254 256 258 258 256 250 241 233 228 224 218 216 205 186 190 200 199 184 179 180 188 176 76 23 4
136 135 328 287 310 319 270 236 204 208 212 206 233 246 268 276 260 252 251 249 250 253 255 254 250 240 234 226 215 214 212 192 184 196 200 195 189 193 198 187 179 203 230 247
159 152 213 299 342 268 249 220 187 212 238 218 236 255 256 252 265 260 245 240 249 249 251 253 248 247 239 226 214 208 189 182 189 198 203 200 194 201 199 190 206 220 219 224
170 160 190 278 293 280 291 254 182 199 269 223 227 252 263 277 308 288 245 222 234 242 246 246 244 243 237 228 209 186 187 186 192 204 208 204 197 200 201 208 217 216 208 229
126 142 176 200 258 260 260 251 177 133 283 247 204 240 253 144 296 276 267 251 257 259 253 251 251 239 234 227 186 181 194 194 209 212 209 200 193 196 206 214 216 212 208 226
151 184 210 218 246 267 258 239 124 194 259 286 209 234 213 209 229 259 284 276 261 261 261 252 245 239 235 208 180 195 201 214 216 203 194 193 194 198 204 204 202 202 210 224
185 184 199 191 220 255 230 149 189 225 270 278 259 246 239 248 265 274 274 272 270 269 267 258 250 256 245 197 187 207 221 220 194 184 192 199 198 199 193 190 201 199 197 214
208 198 193 201 221 242 203 212 235 243 269 272 263 264 259 263 268 272 272 270 267 259 256 248 242 256 252 212 198 217 227 196 180 185 198 202 196 198 190 189 198 201 200 213
254 203 214 254 261 260 259 256 261 255 254 263 264 268 262 261 266 269 271 270 265 260 252 245 239 247 252 229 218 224 215 181 181 193 201 194 191 199 198 200 201 203 207 215
235 192 224 257 273 295 278 250 257 266 265 265 266 262 258 260 265 262 266 267 262 260 254 238 234 242 249 239 231 223 198 179 187 196 198 195 197 198 201 209 213 215 215 210
203 198 205 241 241 238 269 275 272 271 271 271 275 278 269 253 259 264 263 263 260 258 252 248 245 244 248 238 236 222 195 184 186 196 199 197 195 197 198 208 239 243 238 245